Content
SEND FEEDBACK

Daily
Averages
Monthly
Summary
United States of America

CAMP QUEZON, GUAM


Home > North America > United States > Guam
Elevation: 82 meters     Latitude: 13 28N     Longitude: 144 48E

WEATHER
 
SELECT A DAY
Number of Records: 213,899;   Date Range: 1/1/95 - 10/23/14
 
SHARE

PRINT THIS DATA

[ ← Previous Day ]
WEATHER ALMANAC - 1 MARCH, 2013
[ Next Day → ]
[ °F ]   °C
Weather ElementAverageHighLow
Temperature27 °C30 °C (2:54 pm)24 °C (6:13 am)
Dewpoint23.6 °C24.1 °C (12:54 am)22 °C (4:01 pm)
Humidity82 %100 % (6:13 am)63 % (2:54 pm)
Barometer1011.9 hPa1013.5 hPa (8:51 am)1010.2 hPa (3:54 pm)
Wind Speed20 km/h31.5 km/h (1:54 pm)
Wind Gust37 km/h (12:54 pm)
Weather ElementAverage
Visibility16.1 km
Wind DirectionENE (73.9 °)

Weather ElementTotal
Precipitation---
Cooling Degree Days8.7 (Base 18.3)
Growing Degree Days17 (Base 10)
Averaged from 36 records on 1 March, 2013
WEATHER CONDITIONS BREAKOUT
WIND DIRECTION BREAKOUT
WEATHER BY HOUR - 1 MARCH, 2013
[ °F ]   °C
Local TimeTemperatureDewpointHumidityBarometerVisibilityWind DirectionWind SpeedGust SpeedPrecipitationEventsConditions
12:27 AM26 °C24 °C89 %1012.9 hPa16.1 kmEast (80°)16.7 km/hScattered Clouds
12:54 AM26.3 °C24.1 °C88 %1011.9 hPa16.1 kmENE (60°)13 km/hScattered Clouds
1:04 AM25 °C24 °C94 %1012.5 hPa16.1 kmENE (70°)11.1 km/hMostly Cloudy
1:54 AM26.2 °C24 °C88 %1011.5 hPa16.1 kmEast (80°)14.8 km/h0 mmScattered Clouds
2:54 AM26 °C23.8 °C88 %1011.2 hPa16.1 kmEast (80°)13 km/hPartly Cloudy
3:54 AM25.9 °C23.8 °C88 %1011.2 hPa16.1 kmEast (80°)11.1 km/hPartly Cloudy
4:54 AM24.4 °C23.9 °C97 %1011.2 hPa16.1 kmENE (70°)13 km/hScattered Clouds
5:17 AM26 °C24 °C89 %1011.9 hPa16.1 kmENE (70°)14.8 km/hMostly Cloudy
5:54 AM25.9 °C23.8 °C88 %1011.2 hPa16.1 kmENE (70°)13 km/hPartly Cloudy
6:13 AM24 °C24 °C100 %1011.9 hPa16.1 kmENE (70°)14.8 km/h0 mmMostly Cloudy
6:20 AM26 °C24 °C89 %1011.9 hPa16.1 kmENE (70°)14.8 km/h0 mmScattered Clouds
6:54 AM25.7 °C23.6 °C88 %1011.5 hPa16.1 kmENE (70°)18.5 km/h0 mmClear
7:54 AM25 °C23.3 °C90 %1012.2 hPa16.1 kmENE (70°)18.5 km/hClear
8:51 AM28 °C24 °C79 %1013.5 hPa16.1 kmNE (50°)22.2 km/hMostly Cloudy
8:54 AM28.3 °C23.9 °C77 %1012.9 hPa16.1 kmENE (60°)22.2 km/hMostly Cloudy
9:02 AM26 °C23 °C83 %1013.5 hPa16.1 kmENE (70°)20.4 km/hScattered Clouds
9:54 AM28.3 °C23.8 °C76 %1012.9 hPa16.1 kmENE (70°)25.9 km/hPartly Cloudy
10:54 AM27.2 °C23.3 °C79 %1012.9 hPa16.1 kmEast (90°)24.1 km/h35.2 km/hMostly Cloudy
11:10 AM28 °C23 °C74 %1013.2 hPa16.1 kmEast (80°)24.1 km/hScattered Clouds
11:54 AM27.2 °C22.2 °C74 %1011.9 hPa16.1 kmEast (90°)25.9 km/hScattered Clouds
12:54 PM27.8 °C23.3 °C76 %1011.5 hPa16.1 kmEast (90°)25.9 km/h37 km/hScattered Clouds
1:02 PM28 °C23 °C74 %1012.2 hPa16.1 kmEast (90°)24.1 km/hMostly Cloudy
1:37 PM29 °C24 °C74 %1011.9 hPa16.1 kmEast (80°)29.6 km/h37 km/hMostly Cloudy
1:54 PM29.9 °C24.1 °C71 %1010.8 hPa16.1 kmEast (80°)31.5 km/hMostly Cloudy
2:54 PM30 °C22.2 °C63 %1010.5 hPa16.1 kmEast (90°)24.1 km/hMostly Cloudy
3:49 PM30 °C24 °C70 %1010.8 hPa16.1 kmENE (70°)29.6 km/h37 km/hMostly Cloudy
3:54 PM29 °C23.6 °C72 %1010.2 hPa16.1 kmEast (80°)25.9 km/hMostly Cloudy
4:01 PM28 °C22 °C70 %1010.8 hPa16.1 kmENE (60°)24.1 km/hScattered Clouds
4:54 PM28.9 °C23.7 °C73 %1010.5 hPa16.1 kmENE (70°)25.9 km/hPartly Cloudy
5:54 PM27.7 °C23.9 °C80 %1010.8 hPa16.1 kmEast (80°)24.1 km/hPartly Cloudy
6:54 PM26.8 °C23.9 °C84 %1011.5 hPa16.1 kmENE (70°)18.5 km/h0 mmPartly Cloudy
7:54 PM26.7 °C23.8 °C84 %1011.9 hPa16.1 kmENE (70°)20.4 km/hPartly Cloudy
8:54 PM26.4 °C23.5 °C84 %1012.2 hPa16.1 kmENE (70°)18.5 km/hPartly Cloudy
9:54 PM26.2 °C23.6 °C86 %1012.5 hPa16.1 kmENE (60°)16.7 km/hPartly Cloudy
10:54 PM26.1 °C23.8 °C87 %1012.5 hPa16.1 kmENE (70°)11.1 km/hScattered Clouds
11:54 PM26.1 °C23.5 °C85 %1012.5 hPa16.1 kmEast (80°)14.8 km/hPartly Cloudy
Hourly data recorded from PGUM, located 0 kilometers away from Camp Quezon, Guam







STORIES FROM OUR PARTNERS